O'Neill, NE

8:21 PM CST on November 19, 2019 (GMT -0600)
The O'Neill Municipal-Baker

Weather History for KONL - June, 2019

Change the Weather History Date:

Friday, June 14, 2019

  Actual Average Record
Temperature  
Mean Temperature 73 °F -  
Max Temperature 85 °F 82 °F 99 °F (1979)
Min Temperature 61 °F 55 °F 37 °F (1989)
Cooling Degree Days 8    
Growing Degree Days 23 (Base 50)    
Moisture  
Dew Point 58 °F    
Average Humidity 62    
Maximum Humidity 82    
Minimum Humidity 42    
Precipitation  
Precipitation 0.00 in - - ()
Sea Level Pressure  
Sea Level Pressure 29.72 in    
Wind  
Wind Speed 11 mph ()    
Max Wind Speed 23 mph    
Max Gust Speed 31 mph    
Visibility 10.0 miles    
Events      
Averages and records for this station are not official NWS values.
T = Trace of Precipitation, MM = Missing Value Source: Averaged Metar Reports

Daily Weather History Graph

Daily Weather History Graph

Search for Another Location

Airport or City:

Astronomy

Jun. 14, 2019 Rise Set
Actual Time 5:56 AM CDT 9:13 PM CDT
Civil Twilight 5:22 AM CDT 9:48 PM CDT
Nautical Twilight 4:37 AM CDT 10:33 PM CDT
Astronomical Twilight 3:42 AM CDT 11:28 PM CDT
Moon 6:33 PM CDT (6/14) 4:19 AM CDT (6/14)
Length of Visible Light 16h 25m
Length of Day
15h 16m
Waxing Gibbous, 92% of the Moon is Illuminated
Jun 14
Waxing Gibbous
Jun 17
Full
Jun 25
Last Quarter
Jul 2
New
Jul 9
First Quarter

Hourly Weather History & Observations

Time (CDT) Temp. Heat Index Dew Point Humidity Pressure Visibility Wind Dir Wind Speed Gust Speed Precip Events Conditions
12:15 AM 69.6 °F - 48.4 °F 47% 29.84 in 10.0 mi South 16.1 mph 26.5 mph N/A   Scattered Clouds
12:35 AM 69.3 °F - 48.6 °F 48% 29.83 in 10.0 mi South 17.3 mph 25.3 mph N/A   Mostly Cloudy
12:55 AM 69.8 °F - 48.2 °F 46% 29.81 in 10.0 mi South 23.0 mph 31.1 mph N/A   Scattered Clouds
1:15 AM 68.9 °F - 48.4 °F 48% 29.81 in 10.0 mi South 19.6 mph 25.3 mph N/A   Clear
1:35 AM 68.0 °F - 48.9 °F 50% 29.82 in 10.0 mi South 18.4 mph 23.0 mph N/A   Clear
1:55 AM 66.9 °F - 50.0 °F 54% 29.81 in 10.0 mi South 18.4 mph 25.3 mph N/A   Clear
2:15 AM 66.0 °F - 51.6 °F 60% 29.81 in 10.0 mi SSW 16.1 mph 25.3 mph N/A   Clear
2:35 AM 64.6 °F - 52.7 °F 65% 29.80 in 10.0 mi South 13.8 mph - N/A   Clear
2:55 AM 63.5 °F - 53.2 °F 69% 29.79 in 10.0 mi South 10.4 mph - N/A   Clear
3:15 AM 63.0 °F - 54.0 °F 72% 29.79 in 10.0 mi South 8.1 mph - N/A   Clear
3:35 AM 63.0 °F - 54.5 °F 74% 29.79 in 10.0 mi South 6.9 mph - N/A   Clear
3:55 AM 63.5 °F - 54.9 °F 73% 29.78 in 10.0 mi South 9.2 mph - N/A   Clear
4:15 AM 63.3 °F - 55.0 °F 74% 29.78 in 10.0 mi South 5.8 mph - N/A   Clear
4:35 AM 62.6 °F - 55.0 °F 76% 29.78 in 10.0 mi South 5.8 mph - N/A   Clear
4:55 AM 62.1 °F - 55.2 °F 78% 29.78 in 10.0 mi South 4.6 mph - N/A   Scattered Clouds
5:15 AM 62.2 °F - 55.6 °F 79% 29.78 in 10.0 mi South 9.2 mph - N/A   Mostly Cloudy
5:35 AM 62.2 °F - 55.6 °F 79% 29.78 in 10.0 mi South 9.2 mph - N/A   Overcast
5:55 AM 61.7 °F - 55.9 °F 81% 29.78 in 10.0 mi South 9.2 mph - N/A   Overcast
6:15 AM 61.7 °F - 56.3 °F 82% 29.78 in 10.0 mi South 6.9 mph - N/A   Overcast
6:35 AM 61.7 °F - 56.3 °F 82% 29.78 in 10.0 mi South 8.1 mph - N/A   Overcast
6:55 AM 62.1 °F - 56.3 °F 81% 29.77 in 10.0 mi South 9.2 mph - N/A   Scattered Clouds
7:15 AM 62.6 °F - 56.5 °F 80% 29.77 in 10.0 mi South 10.4 mph - N/A   Clear
7:35 AM 63.5 °F - 56.7 °F 78% 29.76 in 10.0 mi South 12.7 mph - N/A   Clear
7:55 AM 64.0 °F - 56.7 °F 77% 29.76 in 10.0 mi South 12.7 mph 18.4 mph N/A   Clear
8:15 AM 64.4 °F - 56.7 °F 76% 29.75 in 10.0 mi South 16.1 mph 20.7 mph N/A   Clear
8:35 AM 65.5 °F - 57.0 °F 74% 29.74 in 10.0 mi South 15.0 mph 21.9 mph N/A   Clear
8:55 AM 66.7 °F - 57.6 °F 72% 29.74 in 10.0 mi South 16.1 mph 20.7 mph N/A   Clear
9:15 AM 68.0 °F - 58.3 °F 71% 29.73 in 10.0 mi SSW 16.1 mph 20.7 mph N/A   Clear
9:35 AM 68.9 °F - 58.3 °F 69% 29.73 in 10.0 mi SSW 16.1 mph - N/A   Clear
9:55 AM 70.0 °F - 59.0 °F 68% 29.73 in 10.0 mi SSW 16.1 mph - N/A   Clear
10:15 AM 70.9 °F - 59.5 °F 67% 29.72 in 10.0 mi SSW 12.7 mph - N/A   Clear
10:35 AM 71.8 °F - 60.4 °F 67% 29.72 in 10.0 mi SSW 12.7 mph 20.7 mph N/A   Clear
10:55 AM 72.5 °F - 60.3 °F 65% 29.71 in 10.0 mi SW 11.5 mph - N/A   Clear
11:15 AM 73.6 °F - 60.6 °F 64% 29.71 in 10.0 mi SW 10.4 mph - N/A   Clear
11:35 AM 75.0 °F - 62.2 °F 64% 29.70 in 10.0 mi SSW 9.2 mph 16.1 mph N/A   Clear
11:55 AM 75.6 °F - 62.2 °F 63% 29.71 in 10.0 mi SSW 11.5 mph - N/A   Clear
12:15 PM 76.3 °F - 62.8 °F 63% 29.70 in 10.0 mi SW 11.5 mph 16.1 mph N/A   Clear
12:35 PM 76.5 °F - 62.4 °F 62% 29.70 in 10.0 mi SSW 10.4 mph 16.1 mph N/A   Clear
12:55 PM 77.7 °F - 63.0 °F 60% 29.69 in 10.0 mi SW 10.4 mph - N/A   Clear
1:15 PM 78.8 °F - 63.5 °F 59% 29.69 in 10.0 mi SSW 12.7 mph - N/A   Clear
1:35 PM 79.5 °F - 64.2 °F 59% 29.68 in 10.0 mi SW 11.5 mph - N/A   Clear
1:55 PM 79.9 °F - 63.9 °F 58% 29.67 in 10.0 mi SSW 10.4 mph - N/A   Clear
2:15 PM 80.2 °F 81.9 °F 64.2 °F 58% 29.68 in 10.0 mi SW 10.4 mph - N/A   Clear
2:35 PM 81.3 °F 82.7 °F 63.7 °F 55% 29.68 in 10.0 mi WSW 8.1 mph - N/A   Clear
2:55 PM 82.2 °F 83.7 °F 63.9 °F 54% 29.67 in 10.0 mi SW 10.4 mph - N/A   Clear
3:15 PM 82.9 °F 84.0 °F 63.3 °F 51% 29.67 in 10.0 mi WSW 10.4 mph - N/A   Clear
3:35 PM 83.7 °F 83.9 °F 61.2 °F 46% 29.67 in 10.0 mi WSW 6.9 mph - N/A   Clear
3:55 PM 84.0 °F 84.5 °F 62.1 °F 47% 29.66 in 10.0 mi WSW 5.8 mph - N/A   Clear
4:15 PM 84.4 °F 84.8 °F 61.7 °F 46% 29.66 in 10.0 mi WSW 9.2 mph 16.1 mph N/A   Clear
4:35 PM 85.1 °F 85.7 °F 62.1 °F 46% 29.66 in 10.0 mi SW 6.9 mph - N/A   Clear
4:55 PM 82.8 °F 83.3 °F 61.2 °F 48% 29.65 in 10.0 mi SW 6.9 mph - N/A   Scattered Clouds
5:15 PM 84.4 °F 85.0 °F 62.2 °F 47% 29.65 in 10.0 mi SW 6.9 mph - N/A   Clear
5:35 PM 85.3 °F 85.7 °F 61.5 °F 45% 29.65 in 10.0 mi WSW 5.8 mph - N/A   Scattered Clouds
5:55 PM 83.5 °F 84.1 °F 61.7 °F 48% 29.65 in 10.0 mi SW 5.8 mph - N/A   Mostly Cloudy
6:35 PM 82.2 °F 83.3 °F 63.1 °F 52% 29.65 in 10.0 mi SSW 4.6 mph - N/A   Mostly Cloudy
6:55 PM 84.6 °F 85.2 °F 62.4 °F 47% 29.65 in 10.0 mi Calm Calm - N/A   Mostly Cloudy
7:15 PM 84.4 °F 84.8 °F 61.7 °F 46% 29.65 in 10.0 mi SW 4.6 mph - N/A   Scattered Clouds
7:35 PM 84.0 °F 83.6 °F 58.5 °F 42% 29.66 in 10.0 mi ENE 4.6 mph - N/A   Scattered Clouds
7:55 PM 80.4 °F 81.0 °F 58.8 °F 48% 29.67 in 10.0 mi NNE 8.1 mph - N/A   Scattered Clouds
8:15 PM 78.3 °F - 59.4 °F 52% 29.67 in 10.0 mi NNE 4.6 mph - N/A   Clear
8:35 PM 76.3 °F - 58.6 °F 54% 29.67 in 10.0 mi North 4.6 mph - N/A   Clear
8:55 PM 75.7 °F - 58.1 °F 54% 29.67 in 10.0 mi NNE 3.5 mph - N/A   Clear
9:15 PM 74.5 °F - 58.6 °F 58% 29.67 in 10.0 mi North 5.8 mph - N/A   Clear
9:35 PM 73.4 °F - 58.8 °F 60% 29.67 in 10.0 mi ENE 3.5 mph - N/A   Clear